,,Stat5,,Stat1,,Stat2,,Stat3,,Stat4,,Wind1,,Wind1,
time,status,PA1M_AVG,status,PR1M_SUM,status,RH1M_AVG,status,SR1M_AVG,status,TA1M_AVG,status,W1dAve1m,status,W1sAve1m,
2000-07-09, 00:00:00,VALID,917.05,VALID,0,VALID,98.8469,VALID,0.0339617,VALID,18.105,VALID,200,VALID,0.445747,
2000-07-09, 00:01:00,VALID,917.038,VALID,0,VALID,99.2271,VALID,0.0169808,VALID,18.2148,VALID,199,VALID,0.545313,
2000-07-09, 00:02:00,VALID,917.031,VALID,0,VALID,99.1419,VALID,0.0339617,VALID,18.266,VALID,192,VALID,0.539485,
2000-07-09, 00:03:00,VALID,917.036,VALID,0,VALID,98.9423,VALID,0.0509425,VALID,18.2111,VALID,180,VALID,0.353618,
2000-07-09, 00:04:00,VALID,917.025,VALID,0,VALID,98.913,VALID,0.0169808,VALID,18.1726,VALID,180,VALID,0,
2000-07-09, 00:05:00,VALID,917.018,VALID,0,VALID,98.8711,VALID,0.0509425,VALID,18.114,VALID,180,VALID,0,
2000-07-09, 00:06:00,VALID,917.038,VALID,0,VALID,99.1496,VALID,0,VALID,18.1762,VALID,180,VALID,0,
2000-07-09, 00:07:00,VALID,917.032,VALID,0,VALID,99.0135,VALID,0.0509425,VALID,18.14,VALID,175,VALID,0,
2000-07-09, 00:08:00,VALID,917.034,VALID,0,VALID,98.9334,VALID,0.0509425,VALID,18.0821,VALID,175,VALID,0,
2000-07-09, 00:09:00,VALID,917.03,VALID,0,VALID,98.8507,VALID,0.0169808,VALID,18.0598,VALID,175,VALID,0,
2000-07-09, 00:10:00,VALID,917.038,VALID,0,VALID,98.5939,VALID,0.0339617,VALID,17.9237,VALID,175,VALID,0,
2000-07-09, 00:11:00,VALID,917.019,VALID,0,VALID,98.6511,VALID,-0.0509425,VALID,17.8861,VALID,175,VALID,0,
2000-07-09, 00:12:00,VALID,917.023,VALID,0,VALID,98.6346,VALID,-0.0679233,VALID,17.8835,VALID,175,VALID,0,
2000-07-09, 00:13:00,VALID,917.026,VALID,0,VALID,98.6244,VALID,-0.0679233,VALID,17.8512,VALID,175,VALID,0,
2000-07-09, 00:14:00,VALID,917.031,VALID,0,VALID,98.6028,VALID,-0.0849042,VALID,17.8514,VALID,175,VALID,0,
2000-07-09, 00:15:00,VALID,917.046,VALID,0,VALID,98.6829,VALID,-0.101885,VALID,17.8443,VALID,175,VALID,0,
2000-07-09, 00:16:00,VALID,917.036,VALID,0,VALID,98.866,VALID,-0.0509425,VALID,17.9059,VALID,175,VALID,0,
2000-07-09, 00:17:00,VALID,917.035,VALID,0,VALID,98.8177,VALID,-0.0679233,VALID,17.9322,VALID,169,VALID,0,
2000-07-09, 00:18:00,VALID,917.034,VALID,0,VALID,98.7452,VALID,-0.0679233,VALID,17.89,VALID,158,VALID,0,
2000-07-09, 00:19:00,VALID,917.031,VALID,0,VALID,98.6816,VALID,-0.0679233,VALID,17.8607,VALID,151,VALID,0,
2000-07-09, 00:20:00,VALID,917.046,VALID,0,VALID,98.735,VALID,-0.0509425,VALID,17.8318,VALID,155,VALID,0,
2000-07-09, 00:21:00,VALID,917.06,VALID,0,VALID,98.7681,VALID,-0.0509425,VALID,17.851,VALID,161,VALID,0,
2000-07-09, 00:22:00,VALID,917.055,VALID,0,VALID,98.4896,VALID,-0.0849042,VALID,17.7735,VALID,161,VALID,0,
2000-07-09, 00:23:00,VALID,917.044,VALID,0,VALID,98.7337,VALID,-0.0849042,VALID,17.7998,VALID,161,VALID,0,
2000-07-09, 00:24:00,VALID,917.026,VALID,0,VALID,98.9588,VALID,-0.101885,VALID,17.8807,VALID,161,VALID,0,
2000-07-09, 00:25:00,VALID,917.005,VALID,0,VALID,99.1,VALID,-0.101885,VALID,17.952,VALID,163,VALID,0,
2000-07-09, 00:26:00,VALID,916.971,VALID,0,VALID,98.8329,VALID,-0.0679233,VALID,17.9192,VALID,164,VALID,0,
2000-07-09, 00:27:00,VALID,916.943,VALID,0,VALID,98.6282,VALID,-0.0339617,VALID,17.8088,VALID,164,VALID,0,
2000-07-09, 00:28:00,VALID,916.928,VALID,0,VALID,98.5875,VALID,-0.0169808,VALID,17.7451,VALID,164,VALID,0,
2000-07-09, 00:29:00,VALID,916.934,VALID,0,VALID,98.4781,VALID,-0.0169808,VALID,17.6996,VALID,164,VALID,0,
2000-07-09, 00:30:00,VALID,916.912,VALID,0,VALID,98.2798,VALID,-0.0169808,VALID,17.6155,VALID,164,VALID,0,
2000-07-09, 00:31:00,VALID,916.886,VALID,0,VALID,98.3065,VALID,-0.0169808,VALID,17.6092,VALID,164,VALID,0,
2000-07-09, 00:32:00,VALID,916.858,VALID,0,VALID,98.2073,VALID,-0.0169808,VALID,17.5799,VALID,164,VALID,0,
2000-07-09, 00:33:00,VALID,916.843,VALID,0,VALID,98.178,VALID,0,VALID,17.547,VALID,164,VALID,0,
2000-07-09, 00:34:00,VALID,916.819,VALID,0,VALID,98.2556,VALID,0.0169808,VALID,17.5668,VALID,164,VALID,0,
2000-07-09, 00:35:00,VALID,916.805,VALID,0,VALID,98.4705,VALID,-0.0169808,VALID,17.5929,VALID,164,VALID,0,
2000-07-09, 00:36:00,VALID,916.788,VALID,0,VALID,98.3624,VALID,0,VALID,17.5866,VALID,164,VALID,0,
2000-07-09, 00:37:00,VALID,916.783,VALID,0,VALID,98.3497,VALID,-0.0169808,VALID,17.5963,VALID,164,VALID,0,
2000-07-09, 00:38:00,VALID,916.781,VALID,0,VALID,98.4883,VALID,-0.0509425,VALID,17.5993,VALID,164,VALID,0,
2000-07-09, 00:39:00,VALID,916.777,VALID,0,VALID,98.894,VALID,0,VALID,17.6994,VALID,164,VALID,0,
2000-07-09, 00:40:00,VALID,916.76,VALID,0,VALID,99.1661,VALID,-0.0169808,VALID,17.8385,VALID,171,VALID,0,
2000-07-09, 00:41:00,VALID,916.742,VALID,0,VALID,99.1852,VALID,-0.0169808,VALID,17.9449,VALID,179,VALID,0,
2000-07-09, 00:42:00,VALID,916.726,VALID,0,VALID,99.058,VALID,-0.0169808,VALID,17.997,VALID,179,VALID,0,
2000-07-09, 00:43:00,VALID,916.709,VALID,0,VALID,98.9194,VALID,0,VALID,17.9608,VALID,179,VALID,0,
2000-07-09, 00:44:00,VALID,916.691,VALID,0,VALID,98.8698,VALID,-0.0169808,VALID,17.9186,VALID,179,VALID,0,
2000-07-09, 00:45:00,VALID,916.688,VALID,0,VALID,98.7782,VALID,0.0169808,VALID,17.8544,VALID,179,VALID,0,
2000-07-09, 00:46:00,VALID,916.667,VALID,0,VALID,98.4553,VALID,-0.0169808,VALID,17.7449,VALID,179,VALID,0,
2000-07-09, 00:47:00,VALID,916.661,VALID,0,VALID,98.1437,VALID,0,VALID,17.6217,VALID,179,VALID,0,
2000-07-09, 00:48:00,VALID,916.656,VALID,0,VALID,98.3484,VALID,-0.0339617,VALID,17.586,VALID,179,VALID,0,
2000-07-09, 00:49:00,VALID,916.624,VALID,0,VALID,98.4578,VALID,-0.0509425,VALID,17.6161,VALID,179,VALID,0,
2000-07-09, 00:50:00,VALID,916.618,VALID,0,VALID,98.59,VALID,-0.0169808,VALID,17.6159,VALID,179,VALID,0,
2000-07-09, 00:51:00,VALID,916.614,VALID,0,VALID,98.6396,VALID,0,VALID,17.6254,VALID,179,VALID,0,
2000-07-09, 00:52:00,VALID,916.611,VALID,0,VALID,98.5366,VALID,-0.0339617,VALID,17.6125,VALID,179,VALID,0,
2000-07-09, 00:53:00,VALID,916.622,VALID,0,VALID,98.5341,VALID,-0.0679233,VALID,17.5735,VALID,179,VALID,0,
2000-07-09, 00:54:00,VALID,916.606,VALID,0,VALID,98.6791,VALID,-0.0509425,VALID,17.5873,VALID,179,VALID,0,
2000-07-09, 00:55:00,VALID,916.608,VALID,0,VALID,98.5366,VALID,-0.0339617,VALID,17.5772,VALID,179,VALID,0,
2000-07-09, 00:56:00,VALID,916.605,VALID,0,VALID,98.3472,VALID,0,VALID,17.4932,VALID,179,VALID,0,
2000-07-09, 00:57:00,VALID,916.595,VALID,0,VALID,98.4527,VALID,0,VALID,17.4865,VALID,179,VALID,0,
2000-07-09, 00:58:00,VALID,916.59,VALID,0,VALID,98.5265,VALID,-0.0339617,VALID,17.4895,VALID,179,VALID,0,
2000-07-09, 00:59:00,VALID,916.582,VALID,0,VALID,98.4985,VALID,0,VALID,17.4803,VALID,185,VALID,0,
2000-07-09, 01:00:00,VALID,916.565,VALID,0,VALID,98.5099,VALID,0,VALID,17.4738,VALID,193,VALID,0,
2000-07-09, 01:01:00,VALID,916.539,VALID,0,VALID,98.9092,VALID,-0.0339617,VALID,17.5352,VALID,197,VALID,0,
2000-07-09, 01:02:00,VALID,916.501,VALID,0,VALID,99.0516,VALID,-0.0339617,VALID,17.6159,VALID,200,VALID,0,
2000-07-09, 01:03:00,VALID,916.491,VALID,0,VALID,99.0682,VALID,0,VALID,17.7065,VALID,194,VALID,0,
2000-07-09, 01:04:00,VALID,916.462,VALID,0,VALID,99.0262,VALID,0,VALID,17.7453,VALID,194,VALID,0,
2000-07-09, 01:05:00,VALID,916.446,VALID,0,VALID,99.0796,VALID,-0.0339617,VALID,17.7965,VALID,195,VALID,0,
2000-07-09, 01:06:00,VALID,916.424,VALID,0,VALID,98.9792,VALID,-0.0169808,VALID,17.8325,VALID,194,VALID,0,
2000-07-09, 01:07:00,VALID,916.404,VALID,0,VALID,99.0466,VALID,0,VALID,17.8579,VALID,211,VALID,0,
2000-07-09, 01:08:00,VALID,916.373,VALID,0,VALID,99.0555,VALID,0,VALID,17.9093,VALID,193,VALID,0,
2000-07-09, 01:09:00,VALID,916.343,VALID,0,VALID,98.7096,VALID,-0.0509425,VALID,17.8288,VALID,207,VALID,0,
2000-07-09, 01:10:00,VALID,916.326,VALID,0,VALID,98.571,VALID,-0.0169808,VALID,17.7741,VALID,210,VALID,0,
2000-07-09, 01:11:00,VALID,916.304,VALID,0,VALID,98.5201,VALID,0,VALID,17.7287,VALID,210,VALID,0,
2000-07-09, 01:12:00,VALID,916.303,VALID,0,VALID,98.4616,VALID,0,VALID,17.6964,VALID,210,VALID,0,
2000-07-09, 01:13:00,VALID,916.285,VALID,0,VALID,98.3612,VALID,-0.0339617,VALID,17.6609,VALID,210,VALID,0,
2000-07-09, 01:14:00,VALID,916.262,VALID,0,VALID,98.3523,VALID,0,VALID,17.6284,VALID,213,VALID,0,
2000-07-09, 01:15:00,VALID,916.239,VALID,0,VALID,98.4146,VALID,0,VALID,17.6221,VALID,221,VALID,0,
2000-07-09, 01:16:00,VALID,916.225,VALID,0,VALID,98.2912,VALID,-0.0169808,VALID,17.5901,VALID,232,VALID,0,
2000-07-09, 01:17:00,VALID,916.203,VALID,0,VALID,98.2073,VALID,-0.0169808,VALID,17.5186,VALID,242,VALID,0,
2000-07-09, 01:18:00,VALID,916.206,VALID,0,VALID,98.3853,VALID,0,VALID,17.4994,VALID,223,VALID,0,
2000-07-09, 01:19:00,VALID,916.198,VALID,0,VALID,98.295,VALID,0,VALID,17.4706,VALID,198,VALID,0,
2000-07-09, 01:20:00,VALID,916.21,VALID,0,VALID,98.5036,VALID,-0.0169808,VALID,17.4706,VALID,220,VALID,0,
2000-07-09, 01:21:00,VALID,916.233,VALID,0,VALID,98.5112,VALID,0,VALID,17.4641,VALID,260,VALID,0,
2000-07-09, 01:22:00,VALID,916.241,VALID,0,VALID,98.5773,VALID,0,VALID,17.4609,VALID,251,VALID,0,
2000-07-09, 01:23:00,VALID,916.243,VALID,0,VALID,98.5061,VALID,0,VALID,17.4187,VALID,247,VALID,0,
2000-07-09, 01:24:00,VALID,916.238,VALID,0,VALID,98.5137,VALID,0,VALID,17.4032,VALID,242,VALID,0,
2000-07-09, 01:25:00,VALID,916.246,VALID,0,VALID,98.4184,VALID,0,VALID,17.3509,VALID,236,VALID,0,
2000-07-09, 01:26:00,VALID,916.24,VALID,0,VALID,98.4553,VALID,0,VALID,17.3124,VALID,211,VALID,0,
2000-07-09, 01:27:00,VALID,916.236,VALID,0,VALID,98.6778,VALID,0,VALID,17.3121,VALID,209,VALID,0,
2000-07-09, 01:28:00,VALID,916.225,VALID,0,VALID,98.941,VALID,0,VALID,17.3767,VALID,212,VALID,0,
2000-07-09, 01:29:00,VALID,916.211,VALID,0,VALID,99.2805,VALID,0,VALID,17.4932,VALID,219,VALID,0,
2000-07-09, 01:30:00,VALID,916.197,VALID,0,VALID,99.2602,VALID,-0.0169808,VALID,17.5967,VALID,219,VALID,0,
2000-07-09, 01:31:00,VALID,916.18,VALID,0,VALID,98.9906,VALID,-0.0169808,VALID,17.5675,VALID,219,VALID,0,
2000-07-09, 01:32:00,VALID,916.17,VALID,0,VALID,98.9499,VALID,0,VALID,17.4893,VALID,219,VALID,0,
2000-07-09, 01:33:00,VALID,916.178,VALID,0,VALID,98.9931,VALID,0,VALID,17.4863,VALID,219,VALID,0,
2000-07-09, 01:34:00,VALID,916.174,VALID,0,VALID,98.9525,VALID,0.0169808,VALID,17.4443,VALID,219,VALID,0,
2000-07-09, 01:35:00,VALID,916.161,VALID,0,VALID,98.8952,VALID,0.0169808,VALID,17.4185,VALID,219,VALID,0,
2000-07-09, 01:36:00,VALID,916.165,VALID,0,VALID,98.9486,VALID,0,VALID,17.3899,VALID,219,VALID,0,
2000-07-09, 01:37:00,VALID,916.145,VALID,0,VALID,99.0173,VALID,0.0169808,VALID,17.4028,VALID,217,VALID,0,
2000-07-09, 01:38:00,VALID,916.145,VALID,0,VALID,98.9728,VALID,-0.0169808,VALID,17.3797,VALID,216,VALID,0,
2000-07-09, 01:39:00,VALID,916.13,VALID,0,VALID,99.1216,VALID,0,VALID,17.4062,VALID,216,VALID,0,
2000-07-09, 01:40:00,VALID,916.143,VALID,0,VALID,99.2882,VALID,-0.0169808,VALID,17.477,VALID,216,VALID,0,
2000-07-09, 01:41:00,VALID,916.14,VALID,0,VALID,99.4306,VALID,0.0169808,VALID,17.5741,VALID,216,VALID,0,
2000-07-09, 01:42:00,VALID,916.129,VALID,0,VALID,99.498,VALID,0,VALID,17.6704,VALID,216,VALID,0,
2000-07-09, 01:43:00,VALID,916.137,VALID,0,VALID,99.3187,VALID,0,VALID,17.6934,VALID,216,VALID,0,
2000-07-09, 01:44:00,VALID,916.12,VALID,0,VALID,99.0593,VALID,0,VALID,17.5774,VALID,198,VALID,0,
2000-07-09, 01:45:00,VALID,916.121,VALID,0,VALID,99.2513,VALID,-0.0169808,VALID,17.5873,VALID,191,VALID,0,
2000-07-09, 01:46:00,VALID,916.13,VALID,0,VALID,99.2017,VALID,0,VALID,17.5868,VALID,191,VALID,0,
2000-07-09, 01:47:00,VALID,916.124,VALID,0,VALID,99.0733,VALID,0,VALID,17.5059,VALID,191,VALID,0,
2000-07-09, 01:48:00,VALID,916.123,VALID,0,VALID,99.0516,VALID,0.0169808,VALID,17.4835,VALID,191,VALID,0,
2000-07-09, 01:49:00,VALID,916.11,VALID,0,VALID,98.9982,VALID,0,VALID,17.4284,VALID,191,VALID,0,
2000-07-09, 01:50:00,VALID,916.099,VALID,0,VALID,98.9652,VALID,-0.0339617,VALID,17.4198,VALID,191,VALID,0,
2000-07-09, 01:51:00,VALID,916.079,VALID,0,VALID,98.9385,VALID,0,VALID,17.3772,VALID,191,VALID,0,
2000-07-09, 01:52:00,VALID,916.052,VALID,0,VALID,99.0389,VALID,0,VALID,17.3733,VALID,191,VALID,0,
2000-07-09, 01:53:00,VALID,916.037,VALID,0,VALID,99.1496,VALID,0,VALID,17.4415,VALID,191,VALID,0,
2000-07-09, 01:54:00,VALID,916.025,VALID,0,VALID,99.0427,VALID,-0.0169808,VALID,17.4256,VALID,191,VALID,0,
2000-07-09, 01:55:00,VALID,916,VALID,0,VALID,99.0427,VALID,0,VALID,17.4387,VALID,191,VALID,0,
2000-07-09, 01:56:00,VALID,916.013,VALID,0,VALID,99.0682,VALID,0,VALID,17.4613,VALID,191,VALID,0,
2000-07-09, 01:57:00,VALID,916,VALID,0,VALID,99.072,VALID,-0.0169808,VALID,17.4777,VALID,191,VALID,0,
2000-07-09, 01:58:00,VALID,916.002,VALID,0,VALID,99.0504,VALID,-0.0169808,VALID,17.4712,VALID,191,VALID,0,
2000-07-09, 01:59:00,VALID,916.001,VALID,0,VALID,99.147,VALID,-0.0169808,VALID,17.4997,VALID,191,VALID,0,
2000-07-09, 02:00:00,VALID,915.978,VALID,0,VALID,99.278,VALID,-0.0169808,VALID,17.558,VALID,191,VALID,0,
2000-07-09, 02:01:00,VALID,915.977,VALID,0,VALID,99.3466,VALID,-0.0679233,VALID,17.6456,VALID,191,VALID,0,
2000-07-09, 02:02:00,VALID,915.966,VALID,0,VALID,99.3314,VALID,-0.0679233,VALID,17.6874,VALID,191,VALID,0,
2000-07-09, 02:03:00,VALID,915.952,VALID,0,VALID,99.2475,VALID,0,VALID,17.7005,VALID,191,VALID,0,
2000-07-09, 02:04:00,VALID,915.959,VALID,0,VALID,99.2119,VALID,0,VALID,17.6773,VALID,191,VALID,0,
2000-07-09, 02:05:00,VALID,915.949,VALID,0,VALID,98.9258,VALID,-0.0169808,VALID,17.5804,VALID,191,VALID,0,
2000-07-09, 02:06:00,VALID,915.956,VALID,0,VALID,98.8227,VALID,0,VALID,17.5029,VALID,191,VALID,0,
2000-07-09, 02:07:00,VALID,915.954,VALID,0,VALID,98.8278,VALID,-0.0169808,VALID,17.4609,VALID,195,VALID,0,
2000-07-09, 02:08:00,VALID,915.938,VALID,0,VALID,98.6791,VALID,0,VALID,17.3995,VALID,199,VALID,0,
2000-07-09, 02:09:00,VALID,915.933,VALID,0,VALID,98.5239,VALID,-0.0169808,VALID,17.3352,VALID,205,VALID,0,
2000-07-09, 02:10:00,VALID,915.917,VALID,0,VALID,98.3879,VALID,0,VALID,17.2773,VALID,186,VALID,0,
2000-07-09, 02:11:00,VALID,915.914,VALID,0,VALID,98.515,VALID,-0.0679233,VALID,17.2256,VALID,176,VALID,0,
2000-07-09, 02:12:00,VALID,915.91,VALID,0,VALID,98.7287,VALID,0,VALID,17.2454,VALID,184,VALID,0,
2000-07-09, 02:13:00,VALID,915.911,VALID,0,VALID,98.6918,VALID,-0.0509425,VALID,17.2288,VALID,193,VALID,0,
2000-07-09, 02:14:00,VALID,915.911,VALID,0,VALID,98.6867,VALID,-0.0169808,VALID,17.1998,VALID,201,VALID,0,
2000-07-09, 02:15:00,VALID,915.904,VALID,0,VALID,98.7604,VALID,-0.0169808,VALID,17.1869,VALID,207,VALID,0,
2000-07-09, 02:16:00,VALID,915.878,VALID,0,VALID,98.7617,VALID,-0.0339617,VALID,17.1841,VALID,208,VALID,0,
2000-07-09, 02:17:00,VALID,915.873,VALID,0,VALID,98.7693,VALID,-0.0169808,VALID,17.1449,VALID,209,VALID,0,
2000-07-09, 02:18:00,VALID,915.87,VALID,0,VALID,98.7744,VALID,-0.0339617,VALID,17.1255,VALID,210,VALID,0,
2000-07-09, 02:19:00,VALID,915.848,VALID,0,VALID,98.81,VALID,-0.0509425,VALID,17.1064,VALID,214,VALID,0,
2000-07-09, 02:20:00,VALID,915.834,VALID,0,VALID,98.7846,VALID,-0.0509425,VALID,17.084,VALID,215,VALID,0,
2000-07-09, 02:21:00,VALID,915.821,VALID,0,VALID,98.8304,VALID,-0.0339617,VALID,17.0642,VALID,217,VALID,0,
2000-07-09, 02:22:00,VALID,915.806,VALID,0,VALID,98.8711,VALID,-0.0339617,VALID,17.0577,VALID,209,VALID,0,
2000-07-09, 02:23:00,VALID,915.802,VALID,0,VALID,98.8507,VALID,-0.0339617,VALID,17.0351,VALID,214,VALID,0,
2000-07-09, 02:24:00,VALID,915.804,VALID,0,VALID,98.7465,VALID,-0.0679233,VALID,17,VALID,219,VALID,0,
2000-07-09, 02:25:00,VALID,915.79,VALID,0,VALID,98.721,VALID,-0.0679233,VALID,16.9583,VALID,217,VALID,0,
2000-07-09, 02:26:00,VALID,915.79,VALID,0,VALID,98.8571,VALID,-0.0339617,VALID,16.9352,VALID,217,VALID,0.0812089,
2000-07-09, 02:27:00,VALID,915.782,VALID,0,VALID,98.9436,VALID,-0.0679233,VALID,16.9486,VALID,217,VALID,1.04961,
2000-07-09, 02:28:00,VALID,915.791,VALID,0,VALID,99.0771,VALID,-0.0339617,VALID,16.9615,VALID,219,VALID,1.21454,
2000-07-09, 02:29:00,VALID,915.775,VALID,0,VALID,99.2322,VALID,-0.0849042,VALID,17.0129,VALID,220,VALID,1.20352,
2000-07-09, 02:30:00,VALID,915.777,VALID,0,VALID,99.2525,VALID,-0.0509425,VALID,17.0355,VALID,224,VALID,0.95991,
2000-07-09, 02:31:00,VALID,915.776,VALID,0,VALID,99.2754,VALID,-0.0339617,VALID,17.0549,VALID,221,VALID,1.00117,
2000-07-09, 02:32:00,VALID,915.769,VALID,0,VALID,99.292,VALID,-0.0339617,VALID,17.0581,VALID,209,VALID,0.958333,
2000-07-09, 02:33:00,VALID,915.752,VALID,0,VALID,99.3327,VALID,-0.0509425,VALID,17.0715,VALID,217,VALID,1.01563,
2000-07-09, 02:34:00,VALID,915.738,VALID,0,VALID,99.4077,VALID,-0.0339617,VALID,17.0969,VALID,216,VALID,0.679893,
2000-07-09, 02:35:00,VALID,915.729,VALID,0,VALID,99.3441,VALID,-0.0679233,VALID,17.0876,VALID,173,VALID,0.364648,
2000-07-09, 02:36:00,VALID,915.728,VALID,0,VALID,99.3123,VALID,-0.0509425,VALID,17.0388,VALID,183,VALID,0.5,
2000-07-09, 02:37:00,VALID,915.717,VALID,0,VALID,99.4865,VALID,-0.0509425,VALID,17.1098,VALID,217,VALID,0.941306,
2000-07-09, 02:38:00,VALID,915.731,VALID,0,VALID,99.5755,VALID,-0.0849042,VALID,17.1483,VALID,214,VALID,0.89926,
2000-07-09, 02:39:00,VALID,915.727,VALID,0,VALID,99.545,VALID,-0.0679233,VALID,17.1972,VALID,190,VALID,0.436523,
2000-07-09, 02:40:00,VALID,915.731,VALID,0,VALID,99.456,VALID,-0.0679233,VALID,17.1488,VALID,191,VALID,0.546474,
2000-07-09, 02:41:00,VALID,915.727,VALID,0,VALID,99.5285,VALID,0.0679233,VALID,17.1662,VALID,202,VALID,0.376367,
2000-07-09, 02:42:00,VALID,915.735,VALID,0,VALID,99.5018,VALID,0.0679233,VALID,17.1733,VALID,219,VALID,0.370066,
2000-07-09, 02:43:00,VALID,915.749,VALID,0,VALID,99.4268,VALID,0.0849042,VALID,17.124,VALID,225,VALID,0.0300781,
2000-07-09, 02:44:00,VALID,915.772,VALID,0,VALID,99.3644,VALID,0.0339617,VALID,17.0795,VALID,226,VALID,0,
2000-07-09, 02:45:00,VALID,915.767,VALID,0,VALID,99.3644,VALID,0.0679233,VALID,17.0342,VALID,221,VALID,0,
2000-07-09, 02:46:00,VALID,915.77,VALID,0,VALID,99.3899,VALID,0.101885,VALID,17.0114,VALID,215,VALID,0,
2000-07-09, 02:47:00,VALID,915.76,VALID,0,VALID,99.4713,VALID,0.0849042,VALID,17.0248,VALID,223,VALID,0.383008,
2000-07-09, 02:48:00,VALID,915.751,VALID,0,VALID,99.5031,VALID,0.0509425,VALID,17.0571,VALID,222,VALID,0.28766,
2000-07-09, 02:49:00,VALID,915.732,VALID,0,VALID,99.5221,VALID,0.0849042,VALID,17.0603,VALID,219,VALID,0,
2000-07-09, 02:50:00,VALID,915.738,VALID,0,VALID,99.4408,VALID,0.0849042,VALID,17.0435,VALID,215,VALID,0,
2000-07-09, 02:51:00,VALID,915.734,VALID,0,VALID,99.3161,VALID,0.0679233,VALID,16.9499,VALID,196,VALID,0,
2000-07-09, 02:52:00,VALID,915.711,VALID,0,VALID,99.5209,VALID,0.0169808,VALID,16.9699,VALID,196,VALID,0.196314,
2000-07-09, 02:53:00,VALID,915.722,VALID,0,VALID,99.601,VALID,0.0679233,VALID,17.0411,VALID,197,VALID,0.545508,
2000-07-09, 02:54:00,VALID,915.714,VALID,0,VALID,99.5374,VALID,0.0679233,VALID,17.034,VALID,214,VALID,0.548314,
2000-07-09, 02:55:00,VALID,915.718,VALID,0,VALID,99.5132,VALID,0.0679233,VALID,17.0114,VALID,216,VALID,0.406641,
2000-07-09, 02:56:00,VALID,915.724,VALID,0,VALID,99.5527,VALID,-0.0509425,VALID,17.0351,VALID,209,VALID,0,
2000-07-09, 02:57:00,VALID,915.721,VALID,0,VALID,99.5755,VALID,-0.0679233,VALID,17.0616,VALID,211,VALID,0,
2000-07-09, 02:58:00,VALID,915.713,VALID,0,VALID,99.6073,VALID,-0.0509425,VALID,17.1102,VALID,211,VALID,0,
2000-07-09, 02:59:00,VALID,915.695,VALID,0,VALID,99.5717,VALID,-0.0679233,VALID,17.1167,VALID,211,VALID,0,
2000-07-09, 03:00:00,VALID,915.699,VALID,0,VALID,99.4776,VALID,-0.0339617,VALID,17.0812,VALID,211,VALID,0,
2000-07-09, 03:01:00,VALID,915.69,VALID,0,VALID,99.3263,VALID,-0.0849042,VALID,17.0007,VALID,211,VALID,0,
2000-07-09, 03:02:00,VALID,915.683,VALID,0,VALID,99.2665,VALID,-0.101885,VALID,16.9133,VALID,211,VALID,0,
2000-07-09, 03:03:00,VALID,915.671,VALID,0,VALID,99.5437,VALID,-0.0679233,VALID,16.9518,VALID,213,VALID,0,
2000-07-09, 03:04:00,VALID,915.672,VALID,0,VALID,99.6506,VALID,-0.0509425,VALID,17.0358,VALID,221,VALID,0,
2000-07-09, 03:05:00,VALID,915.673,VALID,0,VALID,99.6836,VALID,-0.101885,VALID,17.1201,VALID,218,VALID,0,
2000-07-09, 03:06:00,VALID,915.663,VALID,0,VALID,99.7052,VALID,-0.0679233,VALID,17.1843,VALID,211,VALID,0.557977,
2000-07-09, 03:07:00,VALID,915.665,VALID,0,VALID,99.6226,VALID,-0.0679233,VALID,17.2037,VALID,187,VALID,0.563867,
2000-07-09, 03:08:00,VALID,915.659,VALID,0,VALID,99.5552,VALID,-0.0679233,VALID,17.1841,VALID,184,VALID,0.608774,
2000-07-09, 03:09:00,VALID,915.646,VALID,0,VALID,99.5514,VALID,-0.0509425,VALID,17.1748,VALID,204,VALID,0.748438,
2000-07-09, 03:10:00,VALID,915.645,VALID,0,VALID,99.5437,VALID,-0.0339617,VALID,17.1841,VALID,216,VALID,0.897821,
2000-07-09, 03:11:00,VALID,915.631,VALID,0,VALID,99.5425,VALID,0,VALID,17.1933,VALID,222,VALID,0.607813,
2000-07-09, 03:12:00,VALID,915.63,VALID,0,VALID,99.5539,VALID,0,VALID,17.2194,VALID,232,VALID,0.689904,
2000-07-09, 03:13:00,VALID,915.616,VALID,0,VALID,99.5514,VALID,-0.0339617,VALID,17.2549,VALID,223,VALID,0.745313,
2000-07-09, 03:14:00,VALID,915.608,VALID,0,VALID,99.5272,VALID,0,VALID,17.2745,VALID,218,VALID,0.279811,
2000-07-09, 03:15:00,VALID,915.594,VALID,0,VALID,99.4662,VALID,-0.0169808,VALID,17.2708,VALID,225,VALID,0.0830078,
2000-07-09, 03:16:00,VALID,915.591,VALID,0,VALID,99.4153,VALID,0,VALID,17.245,VALID,232,VALID,0,
2000-07-09, 03:17:00,VALID,915.591,VALID,0,VALID,99.4509,VALID,-0.0169808,VALID,17.2413,VALID,232,VALID,0,
2000-07-09, 03:18:00,VALID,915.586,VALID,0,VALID,99.4891,VALID,0,VALID,17.2906,VALID,232,VALID,0,
2000-07-09, 03:19:00,VALID,915.587,VALID,0,VALID,99.512,VALID,-0.0169808,VALID,17.3255,VALID,232,VALID,0,
2000-07-09, 03:20:00,VALID,915.586,VALID,0,VALID,99.4878,VALID,-0.0339617,VALID,17.3416,VALID,232,VALID,0,
2000-07-09, 03:21:00,VALID,915.589,VALID,0,VALID,99.4408,VALID,0,VALID,17.3589,VALID,232,VALID,0,
2000-07-09, 03:22:00,VALID,915.598,VALID,0,VALID,99.3848,VALID,-0.0169808,VALID,17.3255,VALID,232,VALID,0,
2000-07-09, 03:23:00,VALID,915.609,VALID,0,VALID,99.3721,VALID,0.0169808,VALID,17.3225,VALID,232,VALID,0,
2000-07-09, 03:24:00,VALID,915.617,VALID,0,VALID,99.3644,VALID,-0.0169808,VALID,17.3061,VALID,232,VALID,0,
2000-07-09, 03:25:00,VALID,915.624,VALID,0,VALID,99.381,VALID,0,VALID,17.3223,VALID,230,VALID,0,
2000-07-09, 03:26:00,VALID,915.636,VALID,0,VALID,99.3212,VALID,0,VALID,17.3059,VALID,225,VALID,0,
2000-07-09, 03:27:00,VALID,915.649,VALID,0,VALID,99.2309,VALID,-0.0339617,VALID,17.2872,VALID,220,VALID,0,
2000-07-09, 03:28:00,VALID,915.663,VALID,0,VALID,99.2042,VALID,0,VALID,17.2542,VALID,207,VALID,0,
2000-07-09, 03:29:00,VALID,915.685,VALID,0,VALID,99.0809,VALID,-0.0169808,VALID,17.2295,VALID,200,VALID,0,
2000-07-09, 03:30:00,VALID,915.714,VALID,0,VALID,98.9614,VALID,0,VALID,17.1378,VALID,200,VALID,0,
2000-07-09, 03:31:00,VALID,915.716,VALID,0,VALID,99.0796,VALID,0,VALID,17.1548,VALID,200,VALID,0,
2000-07-09, 03:32:00,VALID,915.72,VALID,0,VALID,99.0008,VALID,-0.0169808,VALID,17.1354,VALID,200,VALID,0,
2000-07-09, 03:33:00,VALID,915.709,VALID,0,VALID,98.9588,VALID,-0.0169808,VALID,17.1158,VALID,201,VALID,0,
2000-07-09, 03:34:00,VALID,915.709,VALID,0,VALID,98.8406,VALID,0.0339617,VALID,17.0769,VALID,211,VALID,0,
2000-07-09, 03:35:00,VALID,915.69,VALID,0,VALID,98.9092,VALID,0,VALID,17.0474,VALID,211,VALID,0,
2000-07-09, 03:36:00,VALID,915.681,VALID,0,VALID,98.9855,VALID,0,VALID,17.067,VALID,208,VALID,0,
2000-07-09, 03:37:00,VALID,915.687,VALID,0,VALID,98.9677,VALID,-0.0169808,VALID,17.0835,VALID,215,VALID,0,
2000-07-09, 03:38:00,VALID,915.698,VALID,0,VALID,98.9664,VALID,0,VALID,17.0868,VALID,210,VALID,0,
2000-07-09, 03:39:00,VALID,915.685,VALID,0,VALID,98.8838,VALID,0,VALID,17.0769,VALID,196,VALID,0,
2000-07-09, 03:40:00,VALID,915.664,VALID,0,VALID,98.7744,VALID,-0.0169808,VALID,17.048,VALID,187,VALID,0,
2000-07-09, 03:41:00,VALID,915.676,VALID,0,VALID,98.7401,VALID,-0.0509425,VALID,17.0289,VALID,254,VALID,0,
2000-07-09, 03:42:00,VALID,915.689,VALID,0,VALID,98.7337,VALID,-0.0339617,VALID,17.0155,VALID,323,VALID,0,
2000-07-09, 03:43:00,VALID,915.704,VALID,0,VALID,98.81,VALID,0,VALID,17.0607,VALID,338,VALID,0,
2000-07-09, 03:44:00,VALID,915.71,VALID,0,VALID,98.9359,VALID,0,VALID,17.1094,VALID,214,VALID,0.295473,